Back to catalog

SL-12 R/B(2)

AliveMEO
NORAD 25598·ROCKET BODY·🇷🇺 Russia

Launched Dec 30, 1998 from Baikonur Cosmodrome

Loading…

Next Passes (next 24 hours)

TLE

FreshSource: Space-Track

Epoch: Sep 13, 2026, 11:03 UTC

1 25598U 98077F   26256.46075209 -.00000031  00000-0  00000-0 0  9999
2 25598  64.4187  55.9587 0012269 258.0484 104.1798  2.13406838215879

Track SL-12 R/B(2) in real time with AllMySat

Download on the App Store